TimeCDT,TemperatureF,Dew PointF,Humidity,Sea Level PressureIn,VisibilityMPH,Wind Direction,Wind SpeedMPH,Gust SpeedMPH,PrecipitationIn,Events,Conditions,WindDirDegrees,DateUTC
12:15 AM,33.8,33.8,100,29.99,10.0,NNE,21.9,-,N/A,,Overcast,20,2013-04-10 05:15:00
12:35 AM,33.8,33.8,100,29.95,10.0,NNE,21.9,31.1,N/A,,Overcast,30,2013-04-10 05:35:00
12:55 AM,33.8,33.8,100,29.97,10.0,NNE,19.6,28.8,0.01,,Overcast,30,2013-04-10 05:55:00
1:15 AM,33.8,33.8,100,29.98,10.0,NNE,21.9,-,N/A,,Overcast,30,2013-04-10 06:15:00
1:35 AM,33.8,33.8,100,30.01,-9999.0,NNE,17.3,24.2,N/A,,Overcast,20,2013-04-10 06:35:00
1:55 AM,33.8,33.8,100,30.01,10.0,NNE,19.6,-,0.01,,Overcast,30,2013-04-10 06:55:00
2:15 AM,33.8,33.8,100,30.00,8.0,NNE,24.2,31.1,N/A,,Overcast,30,2013-04-10 07:15:00
2:35 AM,32.0,32.0,100,29.99,6.0,NE,23.0,-,N/A,,Overcast,40,2013-04-10 07:35:00
2:55 AM,32.0,32.0,100,29.98,2.0,NE,23.0,31.1,N/A,,Overcast,40,2013-04-10 07:55:00
3:15 AM,32.0,32.0,100,29.96,2.5,NNE,23.0,32.2,N/A,,Overcast,30,2013-04-10 08:15:00
3:35 AM,32.0,32.0,100,29.94,9.0,NE,25.3,36.8,N/A,,Overcast,40,2013-04-10 08:35:00
3:55 AM,32.0,32.0,100,29.88,9.0,NE,34.5,42.6,N/A,,Overcast,40,2013-04-10 08:55:00
4:15 AM,32.0,32.0,100,29.95,4.0,NE,24.2,35.7,N/A,,Overcast,40,2013-04-10 09:15:00
4:35 AM,32.0,32.0,100,29.95,5.0,NE,32.2,-,N/A,,Overcast,50,2013-04-10 09:35:00
4:55 AM,32.0,32.0,100,29.93,7.0,NE,26.5,35.7,N/A,,Overcast,40,2013-04-10 09:55:00
5:15 AM,32.0,32.0,100,29.96,10.0,NE,20.7,29.9,N/A,,Overcast,50,2013-04-10 10:15:00
5:35 AM,32.0,32.0,100,29.97,3.0,NE,21.9,27.6,N/A,,Light Drizzle,50,2013-04-10 10:35:00
5:55 AM,32.0,32.0,100,29.96,1.5,NE,19.6,29.9,0.01,,Light Drizzle,50,2013-04-10 10:55:00
6:15 AM,32.0,32.0,100,29.92,2.0,NE,24.2,33.4,N/A,,Overcast,50,2013-04-10 11:15:00
6:35 AM,32.0,32.0,100,29.91,2.5,NE,24.2,34.5,N/A,,Overcast,50,2013-04-10 11:35:00
6:55 AM,32.0,32.0,100,29.93,9.0,NE,24.2,-,N/A,,Overcast,50,2013-04-10 11:55:00
7:15 AM,32.0,32.0,100,29.96,10.0,NE,18.4,-,N/A,,Overcast,40,2013-04-10 12:15:00
7:35 AM,32.0,32.0,100,29.97,3.0,NE,17.3,24.2,N/A,,Overcast,40,2013-04-10 12:35:00
7:55 AM,32.0,32.0,100,29.96,1.0,NE,17.3,-,N/A,,Overcast,50,2013-04-10 12:55:00
8:15 AM,32.0,32.0,100,29.91,1.0,NE,24.2,-,N/A,,Overcast,50,2013-04-10 13:15:00
8:35 AM,32.0,32.0,100,29.91,4.0,ENE,26.5,35.7,N/A,,Overcast,60,2013-04-10 13:35:00
8:55 AM,32.0,32.0,100,29.95,4.0,East,18.4,28.8,N/A,,Overcast,80,2013-04-10 13:55:00
9:15 AM,32.0,32.0,100,29.97,5.0,ENE,17.3,25.3,N/A,,Overcast,70,2013-04-10 14:15:00
9:35 AM,32.0,32.0,100,29.97,7.0,ENE,17.3,-,N/A,,Overcast,70,2013-04-10 14:35:00
9:55 AM,32.0,32.0,100,29.95,10.0,NE,17.3,23.0,N/A,,Overcast,50,2013-04-10 14:55:00
10:15 AM,32.0,32.0,100,30.00,4.0,NE,8.1,15.0,N/A,,Overcast,40,2013-04-10 15:15:00
10:35 AM,32.0,32.0,100,29.98,0.5,NNE,10.4,-,N/A,,Overcast,30,2013-04-10 15:35:00
10:55 AM,32.0,32.0,100,29.97,0.8,NNE,12.7,-,N/A,,Overcast,30,2013-04-10 15:55:00
11:15 AM,32.0,32.0,100,29.98,1.0,NNE,13.8,-,N/A,,Overcast,20,2013-04-10 16:15:00
11:35 AM,32.0,32.0,100,29.99,1.2,NNE,12.7,-,N/A,,Light Drizzle,20,2013-04-10 16:35:00
12:15 PM,32.0,32.0,100,29.98,1.5,NNE,15.0,-,N/A,,Overcast,30,2013-04-10 17:15:00
12:35 PM,32.0,32.0,100,29.99,4.0,NE,15.0,-,N/A,,Mostly Cloudy,40,2013-04-10 17:35:00
12:55 PM,32.0,32.0,100,29.99,9.0,NE,15.0,-,N/A,,Overcast,40,2013-04-10 17:55:00
1:15 PM,32.0,32.0,100,30.00,10.0,NE,11.5,-,N/A,,Overcast,40,2013-04-10 18:15:00
1:35 PM,32.0,32.0,100,29.99,10.0,NE,15.0,-,N/A,,Overcast,40,2013-04-10 18:35:00
1:55 PM,32.0,32.0,100,29.99,3.0,NE,12.7,-,N/A,,Overcast,40,2013-04-10 18:55:00
2:15 PM,32.0,32.0,100,29.97,2.0,NNE,13.8,-,N/A,,Overcast,30,2013-04-10 19:15:00
2:35 PM,32.0,32.0,100,29.96,2.0,NNE,11.5,-,N/A,,Mostly Cloudy,30,2013-04-10 19:35:00
2:55 PM,32.0,32.0,100,29.95,3.0,NE,16.1,-,N/A,,Mostly Cloudy,40,2013-04-10 19:55:00
3:15 PM,32.0,32.0,100,29.96,1.5,NE,12.7,-,N/A,Rain,Light Rain,40,2013-04-10 20:15:00
3:35 PM,32.0,32.0,100,29.94,2.0,NE,18.4,-,N/A,,Mostly Cloudy,50,2013-04-10 20:35:00
3:55 PM,32.0,32.0,100,29.94,1.5,NE,17.3,-,N/A,,Light Drizzle,50,2013-04-10 20:55:00
4:15 PM,32.0,32.0,100,29.93,2.0,NE,17.3,-,N/A,,Light Drizzle,50,2013-04-10 21:15:00
4:35 PM,32.0,32.0,100,29.92,1.5,NE,15.0,-,N/A,,Overcast,50,2013-04-10 21:35:00
4:55 PM,32.0,32.0,100,29.90,2.0,NE,19.6,-,N/A,,Overcast,50,2013-04-10 21:55:00
5:15 PM,32.0,32.0,100,29.89,3.0,NE,19.6,-,N/A,Rain,Light Rain,50,2013-04-10 22:15:00
5:35 PM,32.0,32.0,100,29.90,7.0,NE,17.3,-,N/A,,Overcast,50,2013-04-10 22:35:00
5:55 PM,32.0,32.0,100,29.89,10.0,NE,18.4,-,N/A,,Overcast,50,2013-04-10 22:55:00
6:15 PM,32.0,32.0,100,29.87,10.0,NE,21.9,-,N/A,,Overcast,50,2013-04-10 23:15:00
6:35 PM,32.0,32.0,100,29.86,10.0,ENE,18.4,-,N/A,,Overcast,60,2013-04-10 23:35:00
6:55 PM,32.0,32.0,100,29.85,10.0,NE,16.1,24.2,N/A,,Overcast,50,2013-04-10 23:55:00
7:15 PM,32.0,32.0,100,29.84,10.0,ENE,16.1,23.0,N/A,,Overcast,60,2013-04-11 00:15:00
7:35 PM,32.0,32.0,100,29.82,10.0,NE,17.3,-,N/A,,Overcast,50,2013-04-11 00:35:00
7:55 PM,32.0,32.0,100,29.84,10.0,ENE,15.0,20.7,N/A,,Overcast,60,2013-04-11 00:55:00
8:15 PM,32.0,32.0,100,29.84,10.0,NE,11.5,-,N/A,,Overcast,50,2013-04-11 01:15:00
8:35 PM,32.0,32.0,100,29.85,5.0,ENE,5.8,20.7,N/A,Rain,Light Rain,60,2013-04-11 01:35:00
8:55 PM,32.0,32.0,100,29.82,3.0,ENE,12.7,-,N/A,,Light Drizzle,60,2013-04-11 01:55:00
9:15 PM,32.0,32.0,100,29.82,1.8,NE,13.8,-,N/A,,Overcast,50,2013-04-11 02:15:00
9:55 PM,32.0,32.0,100,29.82,1.2,ENE,9.2,15.0,N/A,,Overcast,60,2013-04-11 02:55:00
10:15 PM,32.0,32.0,100,29.82,1.8,ENE,6.9,-,N/A,Rain,Light Rain,70,2013-04-11 03:15:00
10:35 PM,32.0,32.0,100,29.82,3.0,ENE,8.1,-,N/A,,Overcast,70,2013-04-11 03:35:00
10:55 PM,32.0,32.0,100,29.82,1.8,ENE,5.8,-,0.02,Snow,Light Snow,60,2013-04-11 03:55:00
11:15 PM,32.0,32.0,100,29.80,1.2,NE,5.8,-,N/A,Snow,Light Snow,40,2013-04-11 04:15:00
11:35 PM,32.0,32.0,100,29.79,1.0,NNE,4.6,-,N/A,Snow,Light Snow,20,2013-04-11 04:35:00
11:55 PM,32.0,32.0,100,29.78,1.8,North,4.6,-,0.04,Snow,Light Snow,360,2013-04-11 04:55:00